Location: Doux
(49.5045°N, 4.4321°E)
Time: 21:39:53
(UTC+00:00)

GP-B - Pass Details

Date: 23 May 2024
Orbit: 624 x 629 km, 89.8° (Epoch: 14 June)

Event Time Altitude Azimuth Distance (km) Brightness Sun altitude
Rises 00:27:21 0° 355° (N) 2,924 7.9 -19.0°
Reaches altitude 10° 00:29:39 10° 349° (NNW) 2,012 6.7 -19.0°
Maximum altitude 00:33:48 41° 279° (W) 906 3.8 -18.8°
Enters shadow 00:35:09 32° 237° (WSW) 1,077 3.9 -18.8°
